This demonstration page uses our WeatherBlox Daily Observations layout. Learn more.

Left ArrowRight Arrow

36.17497, -115.13722

Hourly Observations for January 5, 2020

Temp ( °F °C ) Dew Point ( °F °C ) Humidity (%) Winds ( mph kmh ) Pressure ( in mb ) Visibility ( mi km ) Precip ( " mm )
12:53 am 00:53 Clear 42 5.6 31 -0.6 65 65 NW 6 9 30.38 1029 10 16.0934 0 0
1:53 am 01:53 Clear 40 4.4 30 -1.1 68 68 WNW 6 9 30.37 1029 10 16.0934 0 0
2:53 am 02:53 Clear 40 4.4 30 -1.1 68 68 Calm 30.37 1029 10 16.0934 0 0
3:53 am 03:53 Clear 38 3.3 30 -1.1 73 73 N 5 7 30.37 1028 10 16.0934 0 0
4:53 am 04:53 Clear 39 3.9 29 -1.7 67 67 NNW 8 13 30.37 1028 10 16.0934 0 0
5:53 am 05:53 Clear 38 3.3 29 -1.7 70 70 WNW 6 9 30.37 1028 10 16.0934 0 0
6:53 am 06:53 Sunny 38 3.3 29 -1.7 70 70 WNW 3 6 30.37 1028 10 16.0934 0 0
7:53 am 07:53 Sunny 39 3.9 30 -1.1 70 70 Calm 30.37 1029 10 16.0934 0 0
8:53 am 08:53 Sunny 44 6.7 30 -1.1 58 58 Calm 30.39 1029 10 16.0934 0 0
9:53 am 09:53 Sunny 51 10.6 29 -1.7 43 43 NNW 12 19 30.41 1030 10 16.0934 0 0
10:53 am 10:53 Sunny 55 12.8 30 -1.1 38 38 Calm 30.39 1029 10 16.0934 0 0
11:53 am 11:53 Sunny 57 13.9 30 -1.1 36 36 SE 3 6 30.37 1029 10 16.0934 0 0
12:53 pm 12:53 Sunny 58 14.4 31 -0.6 36 36 SE 12 19 30.35 1028 10 16.0934 0 0
1:53 pm 13:53 Sunny 57 13.9 30 -1.1 36 36 ESE 10 17 30.35 1028 10 16.0934 0 0
2:53 pm 14:53 Sunny 58 14.4 30 -1.1 35 35 SSE 10 17 30.34 1028 10 16.0934 0 0
3:53 pm 15:53 Sunny 57 13.9 30 -1.1 36 36 SE 8 13 30.36 1028 10 16.0934 0 0
4:53 pm 16:53 Clear 54 12.2 31 -0.6 42 42 NNW 5 7 30.37 1028 10 16.0934 0 0
5:53 pm 17:53 Clear 51 10.6 31 -0.6 46 46 N 3 6 30.39 1029 10 16.0934 0 0
6:53 pm 18:53 Clear 48 8.9 31 -0.6 52 52 NW 7 11 30.43 1030 10 16.0934 0 0
7:53 pm 19:53 Clear 53 11.7 19 -7.2 26 26 NW 14 22 30.42 1030 10 16.0934 0 0
8:53 pm 20:53 Clear 52 11.1 20 -6.7 28 28 NNW 15 24 30.44 1031 10 16.0934 0 0
9:53 pm 21:53 Clear 53 11.7 20 -6.7 27 27 NNW 15 24 30.44 1031 10 16.0934 0 0
10:53 pm 22:53 Clear 52 11.1 20 -6.7 28 28 NNW 14 22 30.44 1031 10 16.0934 0 0
11:53 pm 23:53 Clear 50 10 20 -6.7 30 30 NNW 6 9 30.45 1031 10 16.0934 0 0

Powered by AerisWeather